W7DBO-13 Weather Reports


time (UTC)temp
C
wind
direction
speed
KPH
gust
KPH
rain 1hr
cm
rain 24hr
cm
rain mn
cm
humidity
%
barometer
mb
20260508203016 27 110 8.0 12.9 0.00 0.00 0.00 19 1017.6
20260508202040 26 88 9.7 16.1 0.00 0.00 0.00 20 1017.6
20260508201027 26 54 9.7 17.7 0.00 0.00 0.00 19 1017.6
20260508200033 26 38 11.3 19.3 0.00 0.00 0.00 20 1017.8
20260508195016 26 68 9.7 16.1 0.00 0.00 0.00 20 1017.8
20260508194041 27 35 11.3 12.9 0.00 0.00 0.00 20 1018.0
20260508193208 26 45 8.0 11.3 0.00 0.00 0.00 21 1018.1
20260508192030 26 56 9.7 14.5 0.00 0.00 0.00 21 1018.2
20260508191017 26 102 9.7 17.7 0.00 0.00 0.00 21 1018.4
20260508190024 27 167 6.4 11.3 0.00 0.00 0.00 21 1018.6
20260508185027 27 75 8.0 11.3 0.00 0.00 0.00 22 1018.7
20260508184033 26 147 3.2 8.0 0.00 0.00 0.00 31 1018.7
20260508183018 22 136 8.0 9.7 0.00 0.00 0.00 37 1018.8
20260508182025 22 161 8.0 11.3 0.00 0.00 0.00 39 1018.8
20260508181049 24 182 8.0 9.7 0.00 0.00 0.00 35 1018.9
20260508180037 23 137 8.0 9.7 0.00 0.00 0.00 34 1019.1
20260508175039 23 151 8.0 11.3 0.00 0.00 0.00 33 1019.1
20260508174025 24 151 6.4 9.7 0.00 0.00 0.00 31 1019.2
20260508173028 25 168 6.4 8.0 0.00 0.00 0.00 33 1019.3
20260508172016 24 161 4.8 8.0 0.00 0.00 0.00 34 1019.3
20260508171020 24 158 4.8 8.0 0.00 0.00 0.00 33 1019.1
20260508170024 24 157 4.8 6.4 0.00 0.00 0.00 34 1019.1
20260508165030 23 147 4.8 8.0 0.00 0.00 0.00 35 1019.1
20260508164017 22 154 4.8 8.0 0.00 0.00 0.00 40 1019.1
20260508163042 22 142 4.8 6.4 0.00 0.00 0.00 38 1019.1
20260508162025 22 154 4.8 6.4 0.00 0.00 0.00 40 1019.1
20260508161031 21 161 6.4 8.0 0.00 0.00 0.00 40 1019.1
20260508160018 21 166 4.8 8.0 0.00 0.00 0.00 41 1019.0
20260508155021 21 164 4.8 6.4 0.00 0.00 0.00 41 1019.0
20260508154026 20 207 4.8 6.4 0.00 0.00 0.00 41 1019.0
20260508153025 20 150 4.8 6.4 0.00 0.00 0.00 41 1019.0
20260508152017 20 197 4.8 6.4 0.00 0.00 0.00 42 1019.0
20260508151023 20 163 4.8 6.4 0.00 0.00 0.00 42 1018.8
20260508150021 20 178 3.2 6.4 0.00 0.00 0.00 42 1018.9
20260508145020 21 98 1.6 3.2 0.00 0.00 0.00 38 1018.9
20260508144018 21 83 3.2 4.8 0.00 0.00 0.00 38 1018.9
20260508143017 18 113 0.0 3.2 0.00 0.00 0.00 47 1018.8
20260508142016 17 0.0 0.0 0.00 0.00 0.00 50 1018.8
20260508141053 16 259 0.0 3.2 0.00 0.00 0.00 53 1018.7
20260508140021 15 135 0.0 3.2 0.00 0.00 0.00 56 1018.6
20260508135024 13 8 0.0 3.2 0.00 0.00 0.00 59 1018.6
20260508134050 11 342 0.0 3.2 0.00 0.00 0.00 68 1018.5
20260508133015 9 277 3.2 3.2 0.00 0.00 0.00 72 1018.4
20260508132021 8 338 0.0 1.6 0.00 0.00 0.00 75 1018.4
20260508131028 6 270 0.0 1.6 0.00 0.00 0.00 77 1018.2
20260508130034 7 0.0 0.0 0.00 0.00 0.00 75 1018.1
20260508125017 7 0.0 0.0 0.00 0.00 0.00 75 1017.9
20260508124020 7 308 3.2 3.2 0.00 0.00 0.00 76 1017.9
20260508123027 6 0.0 0.0 0.00 0.00 0.00 75 1017.9
20260508122031 6 0.0 4.8 0.00 0.00 0.00 75 1017.8
20260508121017 6 270 3.2 3.2 0.00 0.00 0.00 74 1017.6
20260508120021 7 0.0 0.0 0.00 0.00 0.00 72 1017.6
20260508115026 7 0.0 0.0 0.00 0.00 0.00 72 1017.5
20260508114030 7 293 0.0 3.2 0.00 0.00 0.00 71 1017.4
20260508113021 7 272 1.6 3.2 0.00 0.00 0.00 71 1017.4
20260508112021 7 315 0.0 1.6 0.00 0.00 0.00 71 1017.2
20260508111025 7 280 1.6 3.2 0.00 0.00 0.00 70 1017.1
20260508110031 7 270 1.6 3.2 0.00 0.00 0.00 70 1017.2
20260508105016 7 109 1.6 3.2 0.00 0.00 0.00 70 1017.0
20260508104044 7 270 1.6 3.2 0.00 0.00 0.00 69 1017.0
20260508103028 7 0.0 0.0 0.00 0.00 0.00 69 1017.0
20260508102031 7 0.0 0.0 0.00 0.00 0.00 68 1017.0
20260508101018 8 170 1.6 3.2 0.00 0.00 0.00 68 1016.9
20260508100029 8 270 0.0 1.6 0.00 0.00 0.00 67 1016.9
20260508095028 8 262 1.6 3.2 0.00 0.00 0.00 64 1016.9
20260508094055 8 16 1.6 3.2 0.00 0.00 0.00 65 1016.8
20260508093018 8 0.0 0.0 0.00 0.00 0.00 65 1016.6
20260508092023 8 0.0 0.0 0.00 0.00 0.00 64 1016.6
20260508091029 8 311 3.2 4.8 0.00 0.00 0.00 64 1016.6
20260508090053 8 0.0 0.0 0.00 0.00 0.00 66 1016.6
20260508085019 8 113 1.6 3.2 0.00 0.00 0.00 66 1016.5
20260508084024 8 0.0 0.0 0.00 0.00 0.00 65 1016.5
20260508083028 8 270 1.6 3.2 0.00 0.00 0.00 66 1016.5
20260508082037 8 270 1.6 3.2 0.00 0.00 0.00 64 1016.6
20260508081020 9 0.0 0.0 0.00 0.00 0.00 63 1016.5
20260508080027 10 23 0.0 1.6 0.00 0.00 0.00 62 1016.5
20260508075025 9 256 3.2 4.8 0.00 0.00 0.00 63 1016.5
20260508074016 9 0.0 0.0 0.00 0.00 0.00 62 1016.5
20260508073022 10 0.0 0.0 0.00 0.00 0.00 61 1016.5
20260508072020 10 300 1.6 3.2 0.00 0.00 0.00 61 1016.6
20260508071040 10 338 1.6 3.2 0.00 0.00 0.00 60 1016.5
20260508070017 10 107 1.6 3.2 0.00 0.00 0.00 60 1016.6
20260508065016 10 304 0.0 1.6 0.00 0.00 0.00 60 1016.5
20260508064026 10 0.0 0.0 0.00 0.00 0.00 60 1016.5
20260508063031 10 128 0.0 1.6 0.00 0.00 0.00 61 1016.4
20260508062021 11 0.0 0.0 0.00 0.00 0.00 61 1016.1
20260508061027 11 236 1.6 3.2 0.00 0.00 0.00 61 1016.1
20260508060029 11 0.0 0.0 0.00 0.00 0.00 60 1016.1
20260508055032 11 0.0 3.2 0.00 0.00 0.00 59 1016.1
20260508054019 11 0.0 0.0 0.00 0.00 0.00 55 1016.0
20260508053023 12 0.0 0.0 0.00 0.00 0.00 56 1015.9
20260508052028 12 0.0 0.0 0.00 0.00 0.00 56 1015.9
20260508051016 12 0.0 0.0 0.00 0.00 0.00 56 1015.9
20260508050019 13 0.0 0.0 0.00 0.00 0.00 56 1015.9
20260508045024 13 357 1.6 3.2 0.00 0.00 0.00 58 1015.9
20260508044029 13 347 0.0 3.2 0.00 0.00 0.00 58 1015.9
20260508043037 13 0.0 0.0 0.00 0.00 0.00 58 1015.9
20260508042021 13 296 0.0 3.2 0.00 0.00 0.00 57 1015.9
20260508041025 14 270 0.0 1.6 0.00 0.00 0.00 55 1015.9
20260508040029 15 293 0.0 3.2 0.00 0.00 0.00 54 1015.9
20260508035016 15 0.0 0.0 0.00 0.00 0.00 54 1015.7
20260508034021 15 0.0 0.0 0.00 0.00 0.00 52 1015.6
20260508033026 15 273 1.6 3.2 0.00 0.00 0.00 52 1015.5
20260508032031 16 270 1.6 3.2 0.00 0.00 0.00 50 1015.5
20260508031018 16 11 0.0 3.2 0.00 0.00 0.00 47 1015.3
20260508030022 17 0.0 0.0 0.00 0.00 0.00 45 1015.3
20260508025026 18 0.0 0.0 0.00 0.00 0.00 43 1015.3
20260508024035 19 0.0 0.0 0.00 0.00 0.00 44 1015.2
20260508023018 20 225 0.0 1.6 0.00 0.00 0.00 43 1015.1
20260508022023 21 161 1.6 3.2 0.00 0.00 0.00 44 1015.0
20260508021029 23 171 1.6 3.2 0.00 0.00 0.00 39 1014.9
20260508020052 23 0.0 0.0 0.00 0.00 0.00 35 1014.9
20260508015019 23 133 3.2 4.8 0.00 0.00 0.00 36 1014.9
20260508014045 25 92 1.6 3.2 0.00 0.00 0.00 38 1014.9
20260508013050 25 92 1.6 3.2 0.00 0.00 0.00 31 1014.9
20260508012037 23 155 3.2 3.2 0.00 0.00 0.00 29 1015.1
20260508011019 22 159 3.2 4.8 0.00 0.00 0.00 31 1015.1
20260508010027 23 159 3.2 4.8 0.00 0.00 0.00 32 1015.1
20260508005049 23 110 3.2 3.2 0.00 0.00 0.00 35 1015.3
20260508004016 24 108 3.2 4.8 0.00 0.00 0.00 35 1015.3
20260508003021 25 167 4.8 6.4 0.00 0.00 0.00 28 1015.4
20260508002025 27 283 0.0 3.2 0.00 0.00 0.00 19 1015.5
20260508001024 28 252 3.2 4.8 0.00 0.00 0.00 21 1015.5
20260508000058 27 205 3.2 4.8 0.00 0.00 0.00 21 1015.6
20260507235021 27 165 4.8 8.0 0.00 0.00 0.00 22 1015.9
20260507234020 28 196 3.2 6.4 0.00 0.00 0.00 20 1015.9
20260507233019 28 202 4.8 9.7 0.00 0.00 0.00 20 1015.9
20260507232020 28 195 4.8 6.4 0.00 0.00 0.00 20 1015.9
20260507231036 28 141 4.8 6.4 0.00 0.00 0.00 19 1015.9
20260507230015 27 190 4.8 8.0 0.00 0.00 0.00 20 1016.1
20260507225053 27 159 6.4 11.3 0.00 0.00 0.00 20 1016.1
20260507224018 28 177 8.0 9.7 0.00 0.00 0.00 19 1016.3
20260507223023 27 163 6.4 9.7 0.00 0.00 0.00 20 1016.5
20260507222029 26 210 6.4 8.0 0.00 0.00 0.00 21 1016.6
20260507221032 27 180 6.4 11.3 0.00 0.00 0.00 21 1016.7
20260507220019 27 199 8.0 11.3 0.00 0.00 0.00 21 1016.9
20260507215023 27 192 9.7 12.9 0.00 0.00 0.00 20 1016.9
20260507214028 28 172 8.0 12.9 0.00 0.00 0.00 19 1017.1
20260507213015 30 106 4.8 8.0 0.00 0.00 0.00 18 1017.3
20260507212020 28 158 6.4 9.7 0.00 0.00 0.00 19 1017.4
20260507211026 27 183 8.0 11.3 0.00 0.00 0.00 20 1017.6
20260507210029 27 154 8.0 11.3 0.00 0.00 0.00 19 1017.9
20260507205016 26 160 8.0 11.3 0.00 0.00 0.00 20 1017.9
20260507204022 26 148 8.0 11.3 0.00 0.00 0.00 21 1018.0